[Iaude] MPEC J77: 2024 JT1 [a=1.28,e=0.24,i=4.8,H=26.2]

mpec at cfa.harvard.edu mpec at cfa.harvard.edu
Sun May 5 05:06:49 EDT 2024


M.P.E.C. 2024-J77                                   Issued 2024 May 5, 09:05 UT

     The Minor Planet Electronic Circulars contain information on unusual
         minor planets, routine data on comets and natural satellites,
         and occasional editorial announcements.  They are published
    on behalf of Division F of the International Astronomical Union by the
          Minor Planet Center, Smithsonian Astrophysical Observatory,
                          Cambridge, MA 02138, U.S.A.
			  
             Prepared using the Tamkin Foundation Computer Network

                              MPC at CFA.HARVARD.EDU
            URL https://www.minorplanetcenter.net/    ISSN 1523-6714

                                    2024 JT1                                    


Observations:
     K24J01T* C2024 05 03.49261016 11 18.653-00 00 19.31         20.90wXEJ077F51
     K24J01T  C2024 05 03.50524516 11 16.588-00 02 28.43         21.10wXEJ077F51
     K24J01T  C2024 05 03.51790216 11 14.535-00 04 36.95         20.64wXEJ077F51
     K24J01T  C2024 05 03.53050716 11 12.507-00 06 44.83         20.60wXEJ077F51
     K24J01T KC2024 05 04.28834416 10 14.956-02 11 47.08         20.96GVEJ077I52
     K24J01T KC2024 05 04.28945016 10 14.804-02 11 58.24         20.92GVEJ077I52
     K24J01T KC2024 05 04.29055316 10 14.650-02 12 07.99         20.73GVEJ077I52
     K24J01T KC2024 05 04.29165416 10 14.473-02 12 19.08         20.54GVEJ077I52
     K24J01T 3C2024 05 04.57786716 09 39.558-02 56 46.00         20.61GVEJ077T14
     K24J01T 3C2024 05 04.57884616 09 39.414-02 56 55.09         20.80GVEJ077T14
     K24J01T 3C2024 05 04.57982416 09 39.278-02 57 04.15         20.67GVEJ077T14
     K24J01T 3C2024 05 04.58080616 09 39.134-02 57 13.33         20.49GVEJ077T14
     K24J01T 1C2024 05 04.98964 16 09 12.96 -04 01 02.4          20.8 VXEJ077033
     K24J01T 1C2024 05 04.99113 16 09 12.74 -04 01 15.8          20.4 VXEJ077033
     K24J01T 1C2024 05 04.99263 16 09 12.55 -04 01 29.0          20.8 VXEJ077033
     K24J01T IC2024 05 05.02944416 09 07.34 -04 06 50.0          20.4 GVEJ077L01
     K24J01T IC2024 05 05.03043316 09 07.23 -04 06 58.8          20.3 GVEJ077L01
     K24J01T IC2024 05 05.03191916 09 07.02 -04 07 11.3          20.5 GVEJ077L01
     K24J01T hC2024 05 05.03340516 09 06.90 -04 07 25.2          20.6 GVEJ077L01
     K24J01T hC2024 05 05.03488816 09 06.69 -04 07 38.8          20.5 GVEJ077L01

Observer details:
033 Karl Schwarzschild Observatory, Tautenburg.  Observers S. Melnikov, C.
    Hogner, F. Ludwig, M. Hartmann, B. Stecklum.  Measurer B. Stecklum.
    1.34-m f/3 Schmidt + CCD.
F51 Pan-STARRS 1, Haleakala.  Observers J. Herman, T. Lowe, P. Minguez, A.
    Schultz, I. Smith.  Measurers K. Chambers, T. de Boer, J. Fairlamb, H.
    Gao, M. Huber, C.-C. Lin, E. Magnier, Y. Ramanjooloo, R. Wainscoat, R.
    Weryk.  1.8-m Ritchey-Chretien + CCD.
I52 Steward Observatory, Mt. Lemmon Station.  Observer V. F. Carvajal.
    Measurers T. Beuden, V. F. Carvajal, D. Fay, J. B. Fazekas, D. C. Fuls, A.
    R. Gibbs, A. D. Grauer, H. Groeller, J. K. Hogan, R. A. Kowalski, S. M.
    Larson, G. J. Leonard, D. Rankin, R. L. Seaman, F. C. Shelly, K. W.
    Wierzchos.  1.0-m prime focus + CCD.
L01 Visnjan Observatory, Tican.  Observer K. Korlevic.  1.0-m f/2.9 reflector
    + CCD.
T14 Canada-France-Hawaii Telescope, Maunakea.  Observers R. Wainscoat, A.
    Acohido, T. Burdullis.  Measurers R. Weryk, R. Wainscoat.  3.6-m f/4.1
    reflector + CCD.

Orbital elements:
2024 JT1                                                 Earth MOID = 0.0348 AU
Epoch 2024 Mar. 31.0 TT = JDT 2460400.5                 Veres                   
M   8.93519              (2000.0)            P               Q                  
n   0.67890808     Peri.  118.71964     -0.99074306     -0.11705906             
a   1.2821202      Node    54.63841     +0.07505818     -0.89430453             
e   0.2389827      Incl.    4.83530     +0.11311260     -0.43187565             
P   1.45           H   26.25          G   0.15           U   7                  
Residuals in seconds of arc
240503 F51  0.2+  0.2+    240504 I52  0.1-  0.0     240504 033  0.2+  0.3+
240503 F51  0.0   0.3-    240504 T14  0.0   0.0     240505 L01  0.9-  0.0
240503 F51  0.1-  0.1-    240504 T14  0.0   0.0     240505 L01  0.5-  0.1+
240503 F51  0.1-  0.1+    240504 T14  0.0   0.0     240505 L01  0.6-  0.9+
240504 I52  0.0   0.3+    240504 T14  0.0   0.0     240505 L01  0.6+  0.4+
240504 I52  0.1+  0.3-    240504 033  0.5+  0.1-    240505 L01  0.5+  0.1+
240504 I52  0.2+  0.5+    240504 033  0.1+  0.1-

Ephemeris:
2024 JT1                 a,e,i = 1.28, 0.24, 5                   q = 0.9757
Date    TT    R. A. (2000) Decl.     Delta      r    Elong.  Phase     V
2024 04 05    01 33 05.0 +82 18 52   0.06120 0.9878    76.4   100.2    23.8
...
2024 04 20    16 42 34.2 +54 28 50   0.03670 1.0146   104.9    73.1    21.7
...
2024 04 28    16 20 19.0 +19 04 28   0.03782 1.0342   135.8    42.7    20.9
...
2024 05 04    16 10 34.8 -01 23 28   0.04698 1.0509   154.4    24.5    20.9
2024 05 05    16 09 10.7 -04 00 02   0.04902 1.0538   156.8    22.2    20.9
2024 05 06    16 07 49.3 -06 24 17   0.05117 1.0568   159.0    20.0    20.9
...
2024 05 12    16 00 35.9 -17 17 09   0.06613 1.0753   169.4    10.0    21.2
...
2024 05 20    15 53 23.1 -25 31 25   0.09025 1.1017   174.3     5.2    21.7
...
2024 06 04    15 47 08.1 -32 03 48   0.1459  1.1550   163.3    14.6    23.2

M. P. C. Staff               (C) Copyright 2024 MPC           M.P.E.C. 2024-J77





More information about the Iaude mailing list